Weather History for Gulkana, AK

Change the Weather History Date:

Tuesday, February 18, 2014

  Actual Average Record
Temperature  
Mean Temperature -11 °F -  
Max Temperature 3 °F 13 °F 41 °F (2008)
Min Temperature -25 °F -8 °F -46 °F (1954)
Degree Days  
Heating Degree Days 76    
Moisture  
Dew Point -10 °F    
Average Humidity 81    
Maximum Humidity 87    
Minimum Humidity 67    
Precipitation  
Precipitation 0.03 in - - ()
Sea Level Pressure  
Sea Level Pressure 29.50 in    
Wind  
Wind Speed 2 mph (NNW)    
Max Wind Speed 6 mph    
Max Gust Speed -    
Visibility 8 miles    
Events Snow    
Averages and records for this station are not official NWS values.
T = Trace of Precipitation, MM = Missing Value Source: NWS Daily Summary

Daily Weather History Graph

Daily Weather History Graph

Search for Another Location

Airport:

Trip Planner

Search our weather history database for the weather conditions in past years. The results will help you decide how hot, cold, wet, or windy it might be!

Date:

Astronomy

Feb. 18, 2014 Rise Set
Actual Time 8:18 AM AKST 5:34 PM AKST
Civil Twilight 7:31 AM AKST 6:20 PM AKST
Nautical Twilight 6:39 AM AKST 7:12 PM AKST
Astronomical Twilight 5:48 AM AKST 8:04 PM AKST
Moon 11:03 PM AKST (2/18) 8:40 AM AKST (2/18)
Length of Visible Light 10h 49m
Length of Day
9h 15m
Waning Gibbous, 86% of the Moon is Illuminated
Feb 18
Waning Gibbous
Feb 22
Last Quarter
Feb 28
New
Mar 8
First Quarter
Mar 16
Full

Hourly Weather History & Observations

Time (AKST) Temp. Windchill Dew Point Humidity Pressure Visibility Wind Dir Wind Speed Gust Speed Precip Events Conditions
12:53 AM -14.1 °F - -17.0 °F 87% 29.50 in 10.0 mi Calm Calm - N/A   Clear
1:53 AM -13.0 °F -22.7 °F -18.0 °F 78% 29.51 in 10.0 mi West 3.5 mph - N/A   Mostly Cloudy
3:53 AM -9.9 °F - -14.1 °F 82% 29.52 in 10.0 mi Calm Calm - N/A   Overcast
4:53 AM -7.1 °F - -11.0 °F 83% 29.52 in 10.0 mi Calm Calm - N/A   Overcast
5:53 AM -5.1 °F -13.6 °F -9.9 °F 80% 29.52 in 4.0 mi North 3.5 mph - 0.00 in Snow Light Snow
6:07 AM -5.1 °F -13.6 °F -9.0 °F 83% 29.34 in 1.8 mi NNW 3.5 mph - 0.00 in Snow Light Snow
6:37 AM -4.0 °F -16.3 °F -9.0 °F 79% 29.33 in 2.5 mi North 5.8 mph - 0.01 in Snow Light Snow
6:53 AM -4.0 °F -12.4 °F -8.0 °F 83% 29.53 in 2.0 mi North 3.5 mph - 0.01 in Snow Light Snow
7:02 AM -4.0 °F -12.4 °F -9.0 °F 79% 29.34 in 1.5 mi North 3.5 mph - 0.00 in Snow Light Snow
7:38 AM -2.9 °F - -7.1 °F 82% 29.34 in 2.5 mi Calm Calm - 0.01 in Snow Light Snow
7:53 AM -2.9 °F - -7.1 °F 82% 29.53 in 3.0 mi Calm Calm - 0.02 in Snow Light Snow
8:37 AM -4.0 °F - -8.0 °F 83% 29.35 in 4.0 mi Calm Calm - 0.00 in Snow Light Snow
8:51 AM -5.8 °F -16.7 °F -9.4 °F 84% 29.34 in 9.0 mi North 4.6 mph - 0.00 in   Mostly Cloudy
8:53 AM -5.1 °F -15.8 °F -9.0 °F 83% 29.54 in 10.0 mi NNW 4.6 mph - 0.00 in   Mostly Cloudy
9:53 AM -5.1 °F - -8.0 °F 87% 29.54 in 10.0 mi Calm Calm - N/A   Scattered Clouds
10:53 AM -2.9 °F - -6.0 °F 87% 29.55 in 10.0 mi Calm Calm - N/A   Mostly Cloudy
11:53 AM -4.0 °F - -7.1 °F 87% 29.55 in 10.0 mi Calm Calm - N/A   Partly Cloudy
12:53 PM -0.9 °F - -4.0 °F 87% 29.55 in 10.0 mi Calm Calm - N/A   Clear
1:53 PM 1.0 °F - -2.9 °F 83% 29.55 in 10.0 mi Calm Calm - N/A   Clear
2:53 PM 1.9 °F - -2.9 °F 80% 29.54 in 10.0 mi Calm Calm - N/A   Clear
3:53 PM 3.0 °F - -0.9 °F 84% 29.52 in 10.0 mi Calm Calm - N/A   Clear
4:53 PM 1.9 °F - -2.0 °F 83% 29.52 in 10.0 mi Calm Calm - N/A   Clear
5:53 PM -2.0 °F - -6.0 °F 83% 29.52 in 10.0 mi Calm Calm - N/A   Clear
6:53 PM -6.0 °F - -9.9 °F 83% 29.53 in 10.0 mi Calm Calm - N/A   Clear
7:53 PM -9.0 °F - -13.0 °F 83% 29.55 in 10.0 mi Calm Calm - N/A   Clear
8:53 PM -11.0 °F - -16.1 °F 78% 29.55 in 10.0 mi Calm Calm - N/A   Clear
9:53 PM -11.0 °F - -17.0 °F 75% 29.56 in 10.0 mi Calm Calm - N/A   Clear
10:53 PM -13.0 °F - -18.0 °F 78% 29.56 in 10.0 mi Calm Calm - N/A   Clear
11:53 PM -14.1 °F - -20.0 °F 75% 29.57 in 10.0 mi Calm Calm - N/A   Clear